This demonstration page uses our WeatherBlox Daily Observations layout. Learn more.

Left ArrowRight Arrow

34.74481, -87.66753

Hourly Observations for October 14, 2021

Temp ( °F °C ) Dew Point ( °F °C ) Humidity (%) Winds ( mph kmh ) Pressure ( in mb ) Visibility ( mi km ) Precip ( " mm )
12:53 am 00:53 Clear 70 21.1 65 18.3 84 84 SE 6 9 29.97 1015 10 16 N/A
1:53 am 01:53 Clear 70 21.1 65 18.3 84 84 SE 5 7 29.97 1015 10 16 N/A
2:53 am 02:53 Clear 69 20.6 64 17.8 84 84 SSE 5 7 29.96 1015 10 16 N/A
3:53 am 03:53 Clear 68 20 63 17.2 84 84 N N/A 29.98 1015 9 14 N/A
4:53 am 04:53 Clear 67 19.4 63 17.2 87 87 SE 5 7 29.97 1015 7 11 N/A
5:53 am 05:53 Clear 68 20 63 17.2 84 84 SE 5 7 29.99 1016 10 16 N/A
6:53 am 06:53 Clear with Mist and Fog 65 18.3 62 16.7 90 90 SE 3 6 30.00 1016 6 10 N/A
7:53 am 07:53 Sunny 69 20.6 65 18.3 87 87 N N/A 30.01 1016 8 13 N/A
8:53 am 08:53 Sunny 74 23.3 66 18.9 76 76 VRB 3 6 30.01 1016 10 16 N/A
9:53 am 09:53 Mostly Cloudy 77 25 66 18.9 69 69 VRB 5 7 30.02 1017 10 16 N/A
10:53 am 10:53 Mostly Sunny 79 26.1 66 18.9 65 65 SSW 7 11 30.01 1016 10 16 N/A
11:53 am 11:53 Partly Cloudy 82 27.8 67 19.4 60 60 WSW 6 9 30.00 1016 10 16 N/A
12:53 pm 12:53 Mostly Cloudy 84 28.9 67 19.4 57 57 N N/A 29.96 1015 10 16 N/A
1:53 pm 13:53 Mostly Cloudy 83 28.3 67 19.4 59 59 WNW 6 9 29.93 1014 10 16 N/A
2:53 pm 14:53 Partly Cloudy 84 28.9 66 18.9 55 55 SW 8 13 29.92 1013 10 16 N/A
3:53 pm 15:53 Sunny 83 28.3 66 18.9 57 57 VRB 6 9 29.91 1013 10 16 N/A
4:53 pm 16:53 Sunny 82 27.8 64 17.8 55 55 SSW 7 11 29.92 1013 10 16 N/A
5:53 pm 17:53 Sunny 80 26.7 64 17.8 58 58 S 3 6 29.92 1013 10 16 N/A
6:53 pm 18:53 Clear 75 23.9 66 18.9 74 74 SE 6 9 29.92 1013 10 16 N/A
7:53 pm 19:53 Clear 74 23.3 66 18.9 76 76 N N/A 29.93 1014 10 16 N/A
8:53 pm 20:53 Clear 71 21.7 65 18.3 81 81 SE 3 6 29.93 1014 10 16 N/A
9:53 pm 21:53 Clear 72 22.2 65 18.3 79 79 SE 5 7 29.94 1014 10 16 N/A
10:53 pm 22:53 Clear 69 20.6 65 18.3 87 87 SE 3 6 29.94 1014 10 16 N/A
11:53 pm 23:53 Clear 69 20.6 64 17.8 84 84 N N/A 29.93 1014 10 16 N/A

Powered by AerisWeather